Richmond Hanover County, VA

6:59 AM EDT on June 28, 2017 (GMT -0400)
Hanover County Municipal

Weather History for KOFP - September, 2013

Change the Weather History Date:

Saturday, September 21, 2013

  Actual Average Record
Temperature  
Mean Temperature 66 °F -  
Max Temperature 77 °F 78 °F 91 °F (1965)
Min Temperature 55 °F 59 °F 33 °F (1956)
Cooling Degree Days 1    
Growing Degree Days 16 (Base 50)    
Moisture  
Dew Point 62 °F    
Average Humidity 85    
Maximum Humidity 97    
Minimum Humidity 54    
Precipitation  
Precipitation 0.75 in - - ()
Sea Level Pressure  
Sea Level Pressure 29.85 in    
Wind  
Wind Speed 4 mph (SSW)    
Max Wind Speed 15 mph    
Max Gust Speed 29 mph    
Visibility 8 miles    
Events Rain    
Averages and records for this station are not official NWS values.
T = Trace of Precipitation, MM = Missing Value Source: NWS Daily Summary

Daily Weather History Graph

Daily Weather History Graph

Search for Another Location

Airport or City:

Trip Planner

Search our weather history database for the weather conditions in past years. The results will help you decide how hot, cold, wet, or windy it might be!

Date:

Astronomy

Sep. 21, 2013 Rise Set
Actual Time 6:56 AM EDT 7:07 PM EDT
Civil Twilight 6:30 AM EDT 7:34 PM EDT
Nautical Twilight 6:00 AM EDT 8:04 PM EDT
Astronomical Twilight 5:28 AM EDT 8:35 PM EDT
Moon 8:21 PM EDT (9/21) 9:09 AM EDT (9/21)
Length of Visible Light 13h 03m
Length of Day
12h 11m
Waning Gibbous, 94% of the Moon is Illuminated
Sep 21
Waning Gibbous
Sep 26
Last Quarter
Oct 4
New
Oct 11
First Quarter
Oct 18
Full

Hourly Weather History & Observations

Time (EDT) Temp. Dew Point Humidity Pressure Visibility Wind Dir Wind Speed Gust Speed Precip Events Conditions
12:54 AM 62.1 °F 57.9 °F 86% 29.99 in 10.0 mi Calm Calm - N/A   Clear
1:54 AM 61.0 °F 57.9 °F 90% 29.99 in 10.0 mi Calm Calm - N/A   Clear
2:54 AM 60.1 °F 57.0 °F 90% 29.98 in 10.0 mi Calm Calm - N/A   Clear
3:54 AM 57.9 °F 55.9 °F 93% 29.97 in 10.0 mi Calm Calm - N/A   Mostly Cloudy
4:54 AM 57.0 °F 55.0 °F 93% 29.96 in 9.0 mi Calm Calm - N/A   Clear
5:54 AM 55.9 °F 55.0 °F 97% 29.94 in 8.0 mi Calm Calm - N/A   Clear
6:54 AM 57.9 °F 55.9 °F 93% 29.94 in 10.0 mi Calm Calm - N/A   Mostly Cloudy
7:54 AM 60.1 °F 57.9 °F 93% 29.94 in 10.0 mi Calm Calm - N/A   Overcast
8:54 AM 64.9 °F 59.0 °F 81% 29.92 in 10.0 mi SSE 4.6 mph - N/A   Mostly Cloudy
9:54 AM 70.0 °F 60.1 °F 71% 29.91 in 10.0 mi South 8.1 mph - N/A   Scattered Clouds
10:54 AM 73.9 °F 59.0 °F 59% 29.90 in 10.0 mi South 10.4 mph 16.1 mph N/A   Mostly Cloudy
11:54 AM 77.0 °F 59.0 °F 54% 29.88 in 10.0 mi South 12.7 mph 19.6 mph N/A   Mostly Cloudy
12:54 PM 75.0 °F 61.0 °F 62% 29.85 in 10.0 mi South 8.1 mph - N/A   Overcast
1:54 PM 75.0 °F 62.1 °F 64% 29.81 in 10.0 mi South 15.0 mph 20.7 mph N/A   Overcast
2:54 PM 73.0 °F 64.0 °F 73% 29.80 in 10.0 mi South 12.7 mph 17.3 mph N/A   Overcast
3:54 PM 72.0 °F 64.9 °F 78% 29.78 in 10.0 mi South 6.9 mph - 0.00 in   Overcast
4:54 PM 71.1 °F 66.0 °F 84% 29.77 in 8.0 mi SSE 4.6 mph - 0.01 in Rain Light Rain
5:54 PM 69.1 °F 66.9 °F 93% 29.75 in 7.0 mi Variable 3.5 mph - 0.02 in Rain Light Rain
6:54 PM 69.1 °F 66.9 °F 93% 29.74 in 7.0 mi Variable 4.6 mph - 0.02 in Rain Light Rain
7:54 PM 69.1 °F 66.9 °F 93% 29.75 in 6.0 mi South 4.6 mph - 0.02 in Rain Light Rain
8:16 PM 69.8 °F 68.0 °F 94% 29.78 in 2.0 mi WSW 15.0 mph 23.0 mph 0.13 in Rain Heavy Rain
8:23 PM 66.2 °F 64.4 °F 94% 29.78 in 1.5 mi WSW 11.5 mph 28.8 mph 0.22 in Rain Heavy Rain
8:32 PM 66.2 °F 64.4 °F 94% 29.78 in 2.5 mi WSW 6.9 mph 17.3 mph 0.31 in Rain Heavy Rain
8:54 PM 66.0 °F 64.0 °F 93% 29.77 in 4.0 mi SW 5.8 mph - 0.43 in Rain Rain
9:54 PM 66.9 °F 64.9 °F 93% 29.76 in 5.0 mi SSW 6.9 mph - 0.11 in Rain Light Rain
10:54 PM 66.9 °F 64.9 °F 93% 29.75 in 6.0 mi South 5.8 mph - 0.07 in Rain Light Rain
11:54 PM 66.9 °F 64.9 °F 93% 29.75 in 5.0 mi SW 3.5 mph - 0.07 in Rain Light Rain